Miscellaneous Local Product
Issued by NWS North Platte, NE

Home | Current Version | Previous Version | Text Only | Print | Product List | Glossary On
Versions: 1 2 3 4 5 6 7 8 9 10 11 12 13 14 15 16 17 18 19 20 21 22 23 24 25 26 27 28 29 30 31 32 33 34 35 36 37 38 39 40 41 42 43 44 45 46 47 48 49 50
000
AXUS43 KLBF 030410
MISLBF


WESTERN AND NORTH CENTRAL NEBRASKA HOURLY WEATHER ROUNDUP
NATIONAL WEATHER SERVICE NORTH PLATTE NE
1100 PM CDT WED SEP 02 2015

NOTE: "FAIR" INDICATES FEW OR NO CLOUDS BELOW 12,000 FEET WITH NO
SIGNIFICANT WEATHER AND/OR OBSTRUCTIONS TO VISIBILITY.

NOTE: STATIONS NOT REPORTING VARIABLES SUCH AS SKY/WEATHER OR
PRESSURE ARE PROVIDED BY THE NEBRASKA DEPARTMENT OF
ROADS...RAWS...AND APRS NETWORKS...AND ARE NOT UNDER
NATIONAL WEATHER SERVICE QUALITY CONTROL.

...OBSERVATIONS IN AND NEAR THE EASTERN PANHANDLE OF NEBRASKA...

CITY           SKY/WX    TMP DP  RH WIND       PRES   REMARKS
PINE RIDGE     CLEAR     67  48  50 NW3       29.85R
CHADRON        CLEAR     74  43  32 S9        29.83R
ALLIANCE       CLEAR     66  48  52 S7        29.91R
SIDNEY         PTCLDY    66  42  41 S5        29.96S
CRESCENT LAKE    N/A     75  54  47 S6          N/A
BIG SPRINGS      N/A     75  58  55 SE6         N/A
$$

...OBSERVATIONS IN NORTH CENTRAL NEBRASKA...

CITY           SKY/WX    TMP DP  RH WIND       PRES   REMARKS
VALENTINE      CLEAR     81  58  45 S10       29.83R
THEDFORD       CLEAR     78  63  59 S7        29.89S
AINSWORTH      PTCLDY    76  61  58 S10       29.85S
O`NEILL        CLEAR     76  70  83 SE7       29.85S
ORD            CLEAR     69  65  86 CALM      29.85R
BROKEN BOW     CLEAR     67  63  87 NE3       29.87S
SPRINGVIEW       N/A     81  60  49 CALM        N/A
SARGENT          N/A     70  64  82 CALM        N/A
CHAMBERS         N/A     72  67  83 CALM        N/A
EWING            N/A     72  65  80 CALM        N/A
$$

...OBSERVATIONS IN SOUTHWEST NEBRASKA AND FAR NORTHEAST COLORADO...

CITY           SKY/WX    TMP DP  RH WIND       PRES   REMARKS
WRAY           CLOUDY    69  52  54 CALM      29.91R
HOLYOKE        FAIR      73  63  68 E9        29.92S
IMPERIAL       CLEAR     74  56  53 CALM      29.88S
OGALLALA       CLEAR     75  56  51 CALM      29.89S
NORTH PLATTE   CLEAR     69  64  84 E8        29.87S
MCCOOK         PTCLDY    77  61  57 E8        29.84S
LEXINGTON      CLEAR     72  66  80 E3        29.85S
PAXTON           N/A     71  61  71 CALM        N/A
BRADY            N/A     72  65  80 CALM        N/A
CALLAWAY         N/A     67  64  90 SE3         N/A
$$

...OBSERVATIONS IN CENTRAL LINCOLN COUNTY AREA...

CITY           SKY/WX    TMP DP  RH WIND       PRES   REMARKS
N.P. AIRPORT   CLEAR     69  64  84 E8        29.87S
N.P. DOWNTOWN    N/A     77  68  73 CALM        N/A
N.P. HILLCREST   N/A     76  66  71 E9          N/A
$$

...SOME OBSERVATIONS FROM AROUND THE REGION...

CITY           SKY/WX    TMP DP  RH WIND       PRES   REMARKS
DENVER         MOCLDY    74  40  29 S8        30.05R
LARAMIE        PTCLDY    59  41  51 SW3       30.19R
CHEYENNE       PTCLDY    72  40  31 W12       30.09R
SCOTTSBLUFF    CLEAR     71  54  54 E3        29.92R
RAPID CITY     CLEAR     73  50  44 SE6       29.81R
PIERRE         CLEAR     76  63  64 SE9       29.71S
WINNER         FAIR      86  54  33 S20       29.78R
SIOUX FALLS    PTCLDY    76  71  85 SE7       29.85R
OMAHA          PTCLDY    81  69  67 S14       29.87S
GRAND ISLAND   CLEAR     75  66  73 SE7       29.86S
KANSAS CITY    PTCLDY    75  69  81 S9        29.96S
WICHITA        PTCLDY    79  66  64 S13       29.93R
HAYS           PTCLDY    84  57  39 S15       29.86R
LIBERAL        PTCLDY    79  54  41 S12       29.96R
GOODLAND       MOCLDY    71  53  52 SW8       29.91R
$$



USA.gov is the U.S. government's official web portal to all federal, state and local government web resources and services.